Change the Weather History Date:

Thursday, February 14, 2013

  Actual Average Record
Temperature  
Mean Temperature 44 °F 44 °F  
Max Temperature 51 °F 51 °F 63 °F (1977)
Min Temperature 37 °F 36 °F 16 °F (1995)
Degree Days  
Heating Degree Days 21 21  
Month to date heating degree days 286 307  
Since 1 July heating degree days 2614 2771  
Cooling Degree Days 0 0  
Month to date cooling degree days 0 0  
Year to date cooling degree days 0 0  
Moisture  
Dew Point 39 °F    
Average Humidity 86    
Maximum Humidity 100    
Minimum Humidity 71    
Precipitation  
Precipitation 0.00 in 0.13 in 0.76 in (1947)
Month to date precipitation 0.22 1.85  
Year to date precipitation 3.71 6.73  
Snow  
Snow 0.00 in - - ()
Month to date snowfall 0.0  
Snow Depth 0.00 in    
Sea Level Pressure  
Sea Level Pressure 30.55 in    
Wind  
Wind Speed 3 mph (WNW)    
Max Wind Speed 10 mph    
Max Gust Speed 12 mph    
Visibility 9 miles    
Events Fog    
T = Trace of Precipitation, MM = Missing Value Source: NWS Daily Summary

Daily Weather History Graph

Daily Weather History Graph

Search for Another Location

Airport or City:

Trip Planner

Search our weather history database for the weather conditions in past years. The results will help you decide how hot, cold, wet, or windy it might be!

Date:

Astronomy

Feb. 14, 2013 Rise Set
Actual Time 7:13 AM PST 5:36 PM PST
Civil Twilight 6:42 AM PST 6:07 PM PST
Nautical Twilight 6:08 AM PST 6:41 PM PST
Astronomical Twilight 5:33 AM PST 7:16 PM PST
Moon 9:01 AM PST (2/14) 11:03 PM PST (2/14)
Length of Visible Light 11h 24m
Length of Day
10h 23m
Waxing Crescent, 22% of the Moon is Illuminated
Feb 14
Waxing Crescent
Feb 17
First Quarter
Feb 25
Full
Mar 4
Last Quarter
Mar 11
New

Hourly Weather History & Observations

Time (PST) Temp. Windchill Dew Point Humidity Pressure Visibility Wind Dir Wind Speed Gust Speed Precip Events Conditions
12:53 AM 43.0 °F - 39.0 °F 86% 30.54 in 10.0 mi Calm Calm - N/A   Overcast
1:53 AM 42.1 °F - 37.9 °F 85% 30.55 in 10.0 mi Calm Calm - N/A   Partly Cloudy
2:53 AM 39.0 °F - 37.0 °F 93% 30.55 in 10.0 mi Calm Calm - N/A   Scattered Clouds
3:53 AM 37.9 °F - 36.0 °F 93% 30.54 in 10.0 mi Calm Calm - N/A   Mostly Cloudy
4:53 AM 39.0 °F 36.8 °F 37.9 °F 96% 30.55 in 10.0 mi East 3.5 mph - N/A   Overcast
5:16 AM 39.2 °F - 37.4 °F 93% 30.55 in 10.0 mi Calm Calm - N/A   Overcast
5:53 AM 39.9 °F - 37.9 °F 93% 30.55 in 10.0 mi Calm Calm - N/A   Mostly Cloudy
6:53 AM 37.9 °F 35.5 °F 37.9 °F 100% 30.56 in 7.0 mi West 3.5 mph - N/A Fog Patches of Fog
7:53 AM 39.0 °F - 37.9 °F 96% 30.56 in 7.0 mi Calm Calm - N/A   Overcast
8:53 AM 41.0 °F - 37.9 °F 89% 30.57 in 7.0 mi Calm Calm - N/A   Overcast
9:53 AM 42.1 °F 39.2 °F 37.9 °F 85% 30.58 in 9.0 mi WNW 4.6 mph - N/A   Overcast
10:53 AM 44.1 °F - 39.0 °F 82% 30.58 in 10.0 mi Calm Calm - N/A   Overcast
11:53 AM 44.1 °F 42.5 °F 39.0 °F 82% 30.58 in 10.0 mi NNW 3.5 mph - N/A   Overcast
12:53 PM 48.0 °F - 39.9 °F 74% 30.57 in 10.0 mi Calm Calm - N/A   Overcast
1:53 PM 48.9 °F - 41.0 °F 74% 30.56 in 10.0 mi WNW 5.8 mph - N/A   Overcast
2:53 PM 50.0 °F - 41.0 °F 71% 30.55 in 10.0 mi West 8.1 mph - N/A   Mostly Cloudy
3:53 PM 48.9 °F - 41.0 °F 74% 30.55 in 10.0 mi WNW 9.2 mph - N/A   Overcast
4:46 PM 48.2 °F - 42.8 °F 82% 30.54 in 10.0 mi West 6.9 mph - N/A   Overcast
4:53 PM 48.9 °F - 42.1 °F 77% 30.54 in 10.0 mi West 5.8 mph - N/A   Mostly Cloudy
5:34 PM 48.2 °F - 42.8 °F 82% 30.54 in 10.0 mi West 6.9 mph - N/A   Mostly Cloudy
5:53 PM 48.0 °F - 42.1 °F 80% 30.53 in 10.0 mi WNW 6.9 mph - N/A   Mostly Cloudy
6:53 PM 44.1 °F 40.1 °F 39.9 °F 85% 30.54 in 10.0 mi West 6.9 mph - N/A   Mostly Cloudy
7:53 PM 45.0 °F 43.5 °F 41.0 °F 86% 30.53 in 10.0 mi WSW 3.5 mph - N/A   Scattered Clouds
8:53 PM 41.0 °F 39.0 °F 39.0 °F 93% 30.53 in 10.0 mi West 3.5 mph - N/A   Scattered Clouds
9:53 PM 43.0 °F 41.3 °F 41.0 °F 93% 30.53 in 10.0 mi WNW 3.5 mph - N/A   Scattered Clouds
10:53 PM 41.0 °F 38.0 °F 39.0 °F 93% 30.53 in 7.0 mi West 4.6 mph - N/A   Scattered Clouds
11:53 PM 39.9 °F 36.7 °F 39.0 °F 97% 30.53 in 6.0 mi SSE 4.6 mph - N/A   Scattered Clouds